User: anonymous   Login
Location: Unspecified
(0.0000°N, 0.0000°E)
Time: 07:13:00
(UTC+00:00)
Language:

SJ-6F - Orbit

View from above orbital plane
View from above orbital plane
View from above satellite
View from above satellite

Ground track
Ground track

The orbit data is extracted from the following two-line orbital elements,

1 33409U 08053B   21169.49620227  .00000272  00000-0  30115-4 0  9991
2 33409  97.7903 149.9147 0016491  12.8664 347.2982 14.95087286689467
Epoch (UTC): 18 June 2021 11:54:31
Eccentricity: 0.0016491
inclination: 97.7903°
perigee height: 570 km
apogee height: 593 km
right ascension of ascending node: 149.9147°
argument of perigee: 12.8664°
revolutions per day: 14.95087286
mean anomaly at epoch: 347.2982°
orbit number at epoch: 68946

The dashed part of the orbit path shows where the satellite is in the earth's shadow,  

DLR